Location: Ch�tillon
(48.8024°N, 2.2935°E)
Time: 00:42:40
(UTC+00:00)

CZ-4 R/B - Pass Details

Date: 16 October 2021
Orbit: 531 x 595 km, 97.8° (Epoch: 27 November)

Event Time Altitude Azimuth Distance (km) Brightness Sun altitude
Rises 18:03:27 0° 150° (SSE) 2,708 4.6 -11.3°
Reaches altitude 10° 18:05:36 10° 145° (SE) 1,829 3.6 -11.7°
Maximum altitude 18:09:24 48° 71° (ENE) 745 1.6 -12.3°
Drops below altitude 10° 18:13:19 10° 357° (N) 1,881 4.1 -13.0°
Sets 18:15:32 0° 352° (N) 2,795 5.0 -13.3°
